Weather in Kisumu

Kenya     0°06′02″N   34°46′17″E
temp.,
°C
wind,
m/s
gust,
m/s
humid.,
%
clouds,
%
prec.,
mm/h
press.,
hPa
HPBL,
m
10 august, wed
wed1000:00+20e2267100 0.0 101432
03:00+19ene1270100 0.0 101226
06:00+19e236885 0.0 101350
09:00+21ese126195 0.0 1014303
12:00+25sw2347100 0.0 10131385
15:00+25ssw2347100 0.0 10101297
18:00+23wsw3563100 0.0 1011131
21:00+19nne116594 0.0 101321
11 august, thu
thu1100:00+18ene227077 0.0 101424
03:00+18e3370100 0.0 101241
06:00+17ne227299 0.0 101327
09:00+20ese2265100 0.0 1014220
12:00+24sse225170 0.0 1013873
15:00+26sw234363 0.0 10101178
18:00+23s2258100 0.0 101022
21:00+19nnw1168100 0.0 101316
12 august, fri
fri1200:00+18ene2273100 0.0 101425
03:00+18e2272100 0.1 101248
06:00+17ne2273100 0.0 101224
09:00+20sse2267100 0.0 1014277
12:00+24wsw1154100 0.0 1013790
15:00+25w3348100 0.0 10101341
18:00+22w2367100 0.0 101096
21:00+19ne117495 0.0 101317
13 august, sat
sat1300:00+17ene118039 0.1 101424
03:00+17nne2280100 0.1 101231
06:00+16ne228198 0.0 101324
09:00+20sse226892 0.0 1014315
12:00+24sw225421 0.1 10131121
15:00+26sw344422 0.1 10091627
18:00+23ssw236364 0.0 101093
21:00+19ne227056 0.1 101318
14 august, sun
sun1400:00+17nne227750 0.0 101434
03:00+16ne22765 0.0 101318
06:00+16nne227749 0.0 101323
09:00+20ssw2166100 0.0 1015363
12:00+24ssw325676 0.3 1013955
15:00+26ssw224580 0.3 10091530
18:00+23wnw2267100 0.1 100945
21:00+18nne337797 0.2 101268